Location: Corralito
(14.1667°N, 87.1833°W)
Time: 23:16:51
(UTC+00:00)

Lacrosse 5 - Pass Details

Date: 07 June 2020
Orbit: 714 x 723 km, 57.0° (Epoch: 01 July)

Event Time Altitude Azimuth Distance (km) Brightness Sun altitude
Rises 02:56:41 0° 314° (NW) 3,105 6.2 -34.2°
Reaches altitude 10° 02:59:14 10° 305° (NW) 2,186 5.1 -34.6°
Enters shadow 03:01:48 25° 282° (WNW) 1,415 3.8 -35.1°
